Regional Weather Roundup
Issued by NWS

Home | Current Version | Previous Version | Graphics & Text | Print | Product List | Glossary On
Versions: 1 2 3 4 5 6 7 8 9 10 11 12 13 14 15 16 17 18 19 20 21 22 23 24 25 26 27 28 29 30 31 32 33 34 35 36 37 38 39 40 41 42 43 44 45 46 47 48 49 50
000
ASUS43 KMPX 241301
RWRMN
WEATHER ROUNDUP FOR MINNESOTA
NATIONAL WEATHER SERVICE TWIN CITIES/CHANHASSEN MN
800 AM CDT FRI MAR 24 2017


NOTE: "FAIR" INDICATES FEW OR NO CLOUDS BELOW 12,000 FEET WITH NO
SIGNIFICANT WEATHER AND/OR OBSTRUCTIONS TO VISIBILITY. N/A MEANS
CURRENT SKY AND/OR WEATHER CONDITIONS ARE NOT AVAILABLE.

MNZ060>063-068>070-241400-
   Twin Cities Metro

CITY           SKY/WX    TMP DP  RH WIND       PRES   REMARKS
TWIN CITIES    DRIZZLE   38  35  89 N8        29.92R FOG
ST PAUL        CLOUDY    38  37  97 N7        29.93R FOG
CRYSTAL        CLOUDY    37  34  89 N7        29.92R FOG
BLAINE         DRIZZLE   37  37 100 N5        29.93R
LAKEVILLE      CLOUDY    37  37 100 N6        29.91R FOG
EDEN PRAIRIE   LGT RAIN  38  36  92 N8        29.90R FOG
SOUTH ST PAUL  CLOUDY    38  38  97 N6        29.92R FOG
LAKE ELMO      DRIZZLE   37  37 100 CALM      29.92R
$$
MNZ001>005-007-008-013>017-022>024-027-028-241400-
   Northwest Minnesota

CITY           SKY/WX    TMP DP  RH WIND       PRES   REMARKS
BEMIDJI        CLOUDY    32  32  99 N3        30.01R FOG
HALLOCK        CLEAR     28  25  86 NW13      30.12R WCI  18
ROSEAU         CLEAR     28  23  80 N8        30.07R WCI  20
WARROAD        CLEAR     27  23  86 NW9       30.07R WCI  17
THIEF RVR FALL CLEAR     29  25  85 N14       30.08R WCI  18
CROOKSTON      CLEAR     30  28  93 N12       30.10R WCI  21
FOSSTON        CLOUDY    30  30 100 N9        30.05R FOG     WCI  22
DETROIT LAKES  CLOUDY    34  34 100 N8        30.03R FOG     WCI  27
MOORHEAD       CLOUDY    34  32  93 N10       30.07R FOG     WCI  26
PARK RAPIDS    CLOUDY    35  31  85 N8        30.00R FOG     WCI  29
MAHNOMEN       CLOUDY    32  32  99 N8        30.04R FOG     WCI  25
$$
MNZ006-009>011-018-025>026-241400-
   North Central Minnesota

CITY           SKY/WX    TMP DP  RH WIND       PRES   REMARKS
BAUDETTE       CLOUDY    28  24  85 NW10      30.03R WCI  19
FLAG ISLAND    CLEAR     28  25  86 NW9       30.06R WCI  20
INTL FALLS     CLOUDY    33  31  92 NW6       29.99R WCI  28
WASKISH        PTCLDY    32  30  93 N7        30.03R WCI  26
BIG FORK       CLOUDY    34  32  93 CALM      29.99R FOG
LONGVILLE      CLOUDY    34  34 100 NW3       30.00R FOG
GRAND RAPIDS   CLOUDY    33  32  96 NW12      30.00R FOG     WCI  24
CRANE LAKE     CLOUDY    32  30  93 CALM      30.01R FOG
ORR            CLOUDY    34  30  86 CALM      29.97R
COOK           CLOUDY    34  32  93 N6        29.99R FOG     WCI  29
WALKER         CLOUDY    32  32  99 N8        30.00R FOG     WCI  25
$$
MNZ012-019>021-037-241400-
   Northeast Minnesota

CITY           SKY/WX    TMP DP  RH WIND       PRES   REMARKS
DULUTH         CLOUDY    34  32  92 N8        29.94R FOG     WCI  27
ELY            CLOUDY    32  32 100 CALM      29.96R FOG
HIBBING        CLOUDY    32  31  96 N9        29.95R FOG     WCI  24
EVELETH        CLOUDY    33  32  94 N7        29.96R FOG     WCI  27
DULUTH HARBOR  CLOUDY    34  32  93 CALM      29.98R FOG
TWO HARBORS    MOCLDY    36  32  87 CALM      29.93R FOG
SILVER BAY     CLOUDY    34  34 100 CALM      29.92S FOG
GRAND MARAIS     N/A     33  32  96 CALM      29.96R
G MARAIS ARPRT CLOUDY    30  27  86 N8        29.92R FOG     WCI  23
$$
MNZ029>031-032-039>041-046>048-054>057-064-241400-
   West Central Minnesota

CITY           SKY/WX    TMP DP  RH WIND       PRES   REMARKS
FERGUS FALLS   CLOUDY    34  34 100 N7        30.06R WCI  28
WHEATON        CLOUDY    34  32  93 NW7       30.04R FOG     WCI  28
MORRIS         MOCLDY    36  34  93 N10G16    29.99R FOG
ALEXANDRIA     CLOUDY    34  33  96 N10       29.98R WCI  26
ELBOW LAKE     CLOUDY    33  32  99 CALM      30.01R FOG
WADENA         CLOUDY    32  32 100 N6        30.00R FOG     WCI  26
GLENWOOD       CLOUDY    34  34 100 N12       29.97S FOG     WCI  25
APPLETON       CLOUDY    36  34  93 N12       29.99R
BENSON         CLOUDY    37  32  81 NE9       29.99R HAZE
ORTONVILLE     CLOUDY    34  32  93 N12       30.00R FOG     WCI  25
MADISON        CLOUDY    37  37 100 N12G17    29.98R FOG
WILLMAR        CLOUDY    36  36 100 N9        29.98R FOG
$$
MNZ033>034-036-042>043-049>051-058-059-241400-
   Central Minnesota

CITY           SKY/WX    TMP DP  RH WIND       PRES   REMARKS
ST CLOUD       CLOUDY    35  34  96 N7        29.95R FOG     WCI  29
SAUK CENTRE    CLOUDY    33  32  96 N8        29.97R WCI  26
PAYNESVILLE      N/A     34  34 100 N7        29.96R FOG     WCI  28
AITKIN         CLOUDY    36  32  87 CALM      29.97R FOG
PINE RIVER     CLOUDY    34  34 100 N8        30.03R FOG     WCI  27
BRAINERD       CLOUDY    34  33  96 N8        29.98R FOG     WCI  27
STAPLES        CLOUDY    32  32 100 NW6       29.99R FOG     WCI  26
LONG PRAIRIE   CLOUDY    32  32 100 NW8       29.98R FOG     WCI  25
LITTLE FALLS   CLOUDY    32  32 100 N3        29.98R FOG
LITCHFIELD     CLOUDY    36  36 100 N7        29.94R FOG
BUFFALO        CLOUDY    35  34  95 N5        29.95R FOG     WCI  31
MAPLE LAKE     CLOUDY    36  36 100 N7        29.95R FOG
HUTCHINSON     CLOUDY    36  36  99 N7        29.94R FOG
$$
MNZ037-044-045-052-053-241400-
   East Central Minnesota

CITY           SKY/WX    TMP DP  RH WIND       PRES   REMARKS
PRINCETON      CLOUDY    36  34  93 N6        29.96R FOG
MORA           CLOUDY    34  32  93 N3        29.97R FOG
CAMBRIDGE      CLOUDY    36  34  93 CALM      29.93R FOG
RUSH CITY      CLOUDY    34  33  96 N3        29.95R FOG
MOOSE LAKE     CLOUDY    32  32 100 N3        29.95R FOG
HINCKLEY       CLOUDY    34  34 100 N5        29.95R FOG     WCI  30
CLOQUET        CLOUDY    34  30  86 NW7       29.95R FOG     WCI  28
MCGREGOR       CLOUDY    34  32  93 NW7       29.98R WCI  28
$$
MNZ071>073-080-081-089-090-097-098-241400-
   Southwest Minnesota

CITY           SKY/WX    TMP DP  RH WIND       PRES   REMARKS
MONTEVIDEO     CLOUDY    36  36 100 NE9       29.99R FOG
GRANITE FALLS  CLOUDY    37  36  96 N10       29.97R FOG
CANBY          FOG       35  35  99 N10       29.98R VSB 3/4 WCI  28
MARSHALL       CLOUDY    34  34 100 N13       29.95R FOG     WCI  25
REDWOOD FALLS  CLOUDY    37  34  89 N9        29.93R FOG
OLIVIA         CLOUDY    34  34 100 N8        29.94R FOG     WCI  27
PIPESTONE      CLOUDY    36  32  87 NE14G21   29.90R FOG
WINDOM         SNOW      36  36 100 N12       29.89R VSB 1/2
JACKSON        FOG       36  36 100 N9        29.88R VSB 1/4
TRACY          FOG       35  36 100 N12       29.92R VSB 1/2 WCI  27
SLAYTON        FOG       33  33 100 N14       29.90R VSB 3/4 WCI  24
$$
MNZ065>067-074>077-082>085-091>093-241400-
   South Central Minnesota

CITY           SKY/WX    TMP DP  RH WIND       PRES   REMARKS
MANKATO        CLOUDY    38  37  97 N9        29.90R FOG
NEW ULM        CLOUDY    37  36  93 N9        29.90R FOG
ST JAMES       CLOUDY    37  37 100 N10       29.90R FOG
FAIRMONT       CLOUDY    38  37  97 N13       29.88R FOG
GLENCOE        LGT RAIN  37  37 100 N8        29.91R
FARIBAULT      RAIN      37  37 100 N6        29.90R
OWATONNA       DRIZZLE   37  36  93 N9        29.87S
WASECA         DRIZZLE   36  36 100 N10       29.87F
ALBERT LEA     CLOUDY    37  37 100 NE9G16    29.84F FOG
$$
MNZ078>079-086>088-094>096-241400-
   Southeast Minnesota

CITY           SKY/WX    TMP DP  RH WIND       PRES   REMARKS
ROCHESTER      CLOUDY    37  37 100 N12       29.87R FOG
RED WING       DRIZZLE   39  37  93 CALM      29.91R
STANTON        LGT RAIN  38  36  92 N7        29.90R
DODGE CENTER   CLOUDY    37  36  93 N6        29.87R FOG
WINONA         CLOUDY    37  37 100 N3        29.89R
AUSTIN         CLOUDY    39  37  93 N8        29.83S FOG
PRESTON        CLOUDY    38  37  95 N7        29.85R FOG
$$
ABBREVIATIONS USED IN REMARKS
   TC - TEMPERATURES IN CELSIUS
  WCI - WIND CHILL INDEX
   HX - HEAT INDEX
  VSB - VISIBILITY
$$



USA.gov is the U.S. government's official web portal to all federal, state and local government web resources and services.